Hourly Weather Lukov

Today, 15 May, Saturday

Time Temperature Precipitation Wind Pressure Humidity
00:00 +9°C° 0 mm 3 mps 736 mmHg 96%
01:00 +9°C° 0 mm 3 mps 736 mmHg 97%
02:00 +9°C° 0 mm 3 mps 736 mmHg 97%
03:00 +9°C° 0.1 mm 3 mps 736 mmHg 97%
04:00 +9°C° 0.1 mm 3 mps 737 mmHg 97%
05:00 +10°C° 0.1 mm 4 mps 737 mmHg 97%
06:00 +10°C° 0 mm 4 mps 737 mmHg 94%
07:00 +10°C° 0 mm 5 mps 738 mmHg 92%
08:00 +10°C° 0 mm 5 mps 738 mmHg 89%
09:00 +13°C° 0 mm 5 mps 739 mmHg 82%
10:00 +14°C° 0 mm 5 mps 739 mmHg 75%
11:00 +15°C° 0 mm 5 mps 739 mmHg 68%
12:00 +16°C° 0 mm 5 mps 739 mmHg 66%
13:00 +16°C° 0 mm 5 mps 739 mmHg 64%
14:00 +16°C° 0 mm 5 mps 739 mmHg 63%
15:00 +17°C° 0 mm 4 mps 739 mmHg 61%
16:00 +17°C° 0 mm 3 mps 739 mmHg 59%
17:00 +18°C° 0 mm 3 mps 739 mmHg 58%
18:00 +16°C° 0 mm 2 mps 739 mmHg 64%
19:00 +15°C° 0 mm 1 mps 739 mmHg 70%
20:00 +12°C° 0 mm 0 mps 739 mmHg 76%
21:00 +12°C° 0 mm 1 mps 739 mmHg 79%
22:00 +12°C° 0 mm 1 mps 739 mmHg 81%
23:00 +10°C° 0 mm 2 mps 739 mmHg 84%

Tomorrow, 16 May, Sunday

Time Temperature Precipitation Wind Pressure Humidity
00:00 +10°C° 0 mm 2 mps 739 mmHg 84%
01:00 +9°C° 0 mm 2 mps 740 mmHg 85%
02:00 +9°C° 0 mm 2 mps 740 mmHg 86%
03:00 +9°C° 0 mm 2 mps 739 mmHg 86%
04:00 +9°C° 0 mm 3 mps 739 mmHg 87%
05:00 +9°C° 0 mm 3 mps 739 mmHg 87%
06:00 +10°C° 0 mm 3 mps 739 mmHg 84%
07:00 +12°C° 0 mm 4 mps 739 mmHg 80%
08:00 +14°C° 0 mm 5 mps 739 mmHg 76%
09:00 +15°C° 0 mm 5 mps 739 mmHg 73%
10:00 +16°C° 0 mm 5 mps 739 mmHg 69%
11:00 +19°C° 0 mm 4 mps 739 mmHg 66%
12:00 +19°C° 0.2 mm 4 mps 738 mmHg 64%
13:00 +20°C° 0.2 mm 4 mps 738 mmHg 62%
14:00 +21°C° 0.2 mm 4 mps 738 mmHg 60%
15:00 +20°C° 0.8 mm 4 mps 737 mmHg 65%
16:00 +19°C° 0.8 mm 4 mps 737 mmHg 71%
17:00 +19°C° 0.8 mm 4 mps 737 mmHg 76%
18:00 +18°C° 0.8 mm 3 mps 737 mmHg 80%
19:00 +16°C° 0.8 mm 3 mps 737 mmHg 84%
20:00 +14°C° 0.8 mm 3 mps 736 mmHg 88%
21:00 +13°C° 0.1 mm 3 mps 736 mmHg 90%
22:00 +13°C° 0.1 mm 3 mps 737 mmHg 91%
23:00 +12°C° 0.1 mm 3 mps 737 mmHg 93%

Day after tomorrow, 17 May, Monday

Time Temperature Precipitation Wind Pressure Humidity
00:00 +12°C° 0.2 mm 3 mps 737 mmHg 94%
01:00 +12°C° 0.2 mm 3 mps 737 mmHg 95%
02:00 +12°C° 0.2 mm 2 mps 737 mmHg 96%
03:00 +12°C° 0 mm 2 mps 737 mmHg 96%
04:00 +10°C° 0 mm 2 mps 737 mmHg 97%
05:00 +10°C° 0 mm 2 mps 737 mmHg 97%
06:00 +12°C° 0 mm 2 mps 737 mmHg 92%
07:00 +13°C° 0 mm 2 mps 738 mmHg 87%
08:00 +15°C° 0 mm 2 mps 738 mmHg 82%
09:00 +16°C° 0 mm 2 mps 738 mmHg 76%
10:00 +17°C° 0 mm 2 mps 737 mmHg 69%
11:00 +18°C° 0 mm 2 mps 737 mmHg 63%
12:00 +19°C° 0.1 mm 2 mps 737 mmHg 60%
13:00 +19°C° 0.1 mm 2 mps 737 mmHg 57%
14:00 +20°C° 0.1 mm 2 mps 737 mmHg 54%
15:00 +20°C° 0 mm 2 mps 736 mmHg 58%
16:00 +19°C° 0 mm 2 mps 736 mmHg 62%
17:00 +18°C° 0 mm 2 mps 736 mmHg 66%
18:00 +17°C° 0 mm 2 mps 736 mmHg 70%
19:00 +16°C° 0 mm 2 mps 735 mmHg 73%
20:00 +15°C° 0 mm 1 mps 735 mmHg 77%
21:00 +14°C° 0 mm 2 mps 735 mmHg 82%
22:00 +12°C° 0 mm 3 mps 736 mmHg 86%
23:00 +11°C° 0 mm 4 mps 736 mmHg 91%

18 May, Tuesday

Time Temperature Precipitation Wind Pressure Humidity
00:00 +11°C° 0.4 mm 4 mps 736 mmHg 92%
01:00 +11°C° 0.4 mm 4 mps 736 mmHg 93%
02:00 +10°C° 0.4 mm 4 mps 736 mmHg 94%
03:00 +10°C° 1 mm 4 mps 736 mmHg 95%
04:00 +10°C° 1 mm 4 mps 736 mmHg 95%
05:00 +10°C° 1 mm 4 mps 736 mmHg 96%
06:00 +11°C° 0.1 mm 4 mps 736 mmHg 93%
07:00 +10°C° 0.1 mm 5 mps 736 mmHg 91%
08:00 +12°C° 0.1 mm 5 mps 736 mmHg 89%
09:00 +13°C° 0.1 mm 5 mps 737 mmHg 83%
10:00 +13°C° 0.1 mm 6 mps 737 mmHg 77%
11:00 +14°C° 0.1 mm 6 mps 737 mmHg 70%
12:00 +15°C° 0.2 mm 6 mps 738 mmHg 67%
13:00 +15°C° 0.2 mm 6 mps 738 mmHg 64%
14:00 +15°C° 0.2 mm 6 mps 738 mmHg 61%
15:00 +15°C° 0.1 mm 6 mps 738 mmHg 62%
16:00 +15°C° 0.1 mm 6 mps 738 mmHg 62%
17:00 +15°C° 0.1 mm 5 mps 738 mmHg 63%
18:00 +14°C° 0 mm 5 mps 738 mmHg 70%
19:00 +12°C° 0 mm 4 mps 739 mmHg 77%
20:00 +11°C° 0 mm 3 mps 739 mmHg 84%
21:00 +10°C° 0 mm 3 mps 739 mmHg 87%
22:00 +9°C° 0 mm 3 mps 739 mmHg 90%
23:00 +8°C° 0 mm 3 mps 740 mmHg 93%

19 May, Wednesday

Time Temperature Precipitation Wind Pressure Humidity
00:00 +8°C° 0 mm 3 mps 740 mmHg 93%
01:00 +8°C° 0 mm 3 mps 740 mmHg 94%
02:00 +7°C° 0 mm 3 mps 740 mmHg 95%
03:00 +7°C° 0 mm 3 mps 740 mmHg 95%
04:00 +7°C° 0 mm 3 mps 740 mmHg 95%
05:00 +7°C° 0 mm 3 mps 740 mmHg 96%
06:00 +8°C° 0 mm 3 mps 740 mmHg 89%
07:00 +10°C° 0 mm 3 mps 741 mmHg 82%
08:00 +12°C° 0 mm 3 mps 741 mmHg 76%
09:00 +13°C° 0.1 mm 3 mps 741 mmHg 69%
10:00 +14°C° 0.1 mm 4 mps 741 mmHg 63%
11:00 +17°C° 0.1 mm 4 mps 741 mmHg 56%
12:00 +17°C° 0.1 mm 4 mps 741 mmHg 55%
13:00 +17°C° 0.1 mm 3 mps 741 mmHg 53%
14:00 +17°C° 0.1 mm 3 mps 741 mmHg 52%
15:00 +17°C° 0.1 mm 3 mps 741 mmHg 56%
16:00 +15°C° 0.1 mm 4 mps 741 mmHg 60%
17:00 +15°C° 0.1 mm 4 mps 741 mmHg 64%
18:00 +14°C° 0.2 mm 3 mps 741 mmHg 71%
19:00 +12°C° 0.2 mm 3 mps 742 mmHg 77%
20:00 +12°C° 0.2 mm 2 mps 742 mmHg 84%
21:00 +10°C° 0.2 mm 2 mps 742 mmHg 86%
22:00 +10°C° 0.2 mm 2 mps 742 mmHg 88%
23:00 +10°C° 0.2 mm 2 mps 742 mmHg 91%

20 May, Thursday

Time Temperature Precipitation Wind Pressure Humidity
00:00 +9°C° 0 mm 2 mps 742 mmHg 91%
01:00 +9°C° 0 mm 2 mps 743 mmHg 92%
02:00 +8°C° 0 mm 2 mps 743 mmHg 93%
03:00 +8°C° 0.2 mm 2 mps 743 mmHg 92%
04:00 +8°C° 0.2 mm 2 mps 743 mmHg 92%
05:00 +8°C° 0.2 mm 2 mps 743 mmHg 92%
06:00 +9°C° 0.1 mm 2 mps 743 mmHg 88%
07:00 +10°C° 0.1 mm 2 mps 744 mmHg 85%
08:00 +11°C° 0.1 mm 3 mps 744 mmHg 81%
09:00 +12°C° 0.1 mm 3 mps 744 mmHg 75%
10:00 +13°C° 0.1 mm 3 mps 744 mmHg 69%
11:00 +14°C° 0.1 mm 3 mps 744 mmHg 63%
12:00 +14°C° 0.1 mm 3 mps 744 mmHg 60%
13:00 +16°C° 0.1 mm 3 mps 744 mmHg 58%
14:00 +16°C° 0.1 mm 3 mps 744 mmHg 55%
15:00 +16°C° 0.1 mm 3 mps 743 mmHg 58%
16:00 +16°C° 0.1 mm 3 mps 743 mmHg 61%
17:00 +15°C° 0.1 mm 4 mps 743 mmHg 64%
18:00 +13°C° 0.1 mm 3 mps 743 mmHg 70%
19:00 +12°C° 0.1 mm 3 mps 743 mmHg 76%
20:00 +10°C° 0.1 mm 2 mps 743 mmHg 83%
21:00 +10°C° 0 mm 2 mps 743 mmHg 85%
22:00 +9°C° 0 mm 2 mps 743 mmHg 88%
23:00 +8°C° 0 mm 2 mps 744 mmHg 90%
Show more

We Need Your Consent

Meteoprog and our Service Providers may store and access personal data such as cookies, device identifiers or other similar technologies on your device and process such data to personalise content and ads, as well as provide social media features and to analyse the traffic.

  • Store and/or access information on your device

    Cookies, device identifiers or other information can be stored or accessed on your device for the purposes indicated above.

  • Personalised ads and content, ad and content measurement, audience insights, and products development

    Ads and content can be personalised based on a profile. More data can be added to better personalise ads and content. Ad and content performance can be measured. Insights about the audience who saw the ads and content can be derived. Such data can be used to develop or improve user’s experience, systems and software.

By clicking ‘I Agree’ you will allow the use of indicated cookies, device identifiers, web beacons or other similar technologies. Your settings can be changed in the browser on your device.

For certain purposes, legitimate interests may be relied on, rather than consent. You can read more about this in our Privacy and Cookie Policy.